Date,TemperatureHighF,TemperatureAvgF,TemperatureLowF,DewpointHighF,DewpointAvgF,DewpointLowF,HumidityHigh,HumidityAvg,HumidityLow,PressureMaxIn,PressureMinIn,WindSpeedMaxMPH,WindSpeedAvgMPH,GustSpeedMaxMPH,PrecipitationSumIn
2013-3-1,39.8,36.9,33.4,32.3,29.0,24.7,85,73,62,29.89,29.71,10,3,18,0.00
2013-3-2,34.1,31.4,29.1,25.7,22.9,20.9,77,71,60,29.88,29.82,9,4,14,0.00
2013-3-3,35.5,31.0,27.6,23.6,21.7,19.8,83,68,59,29.92,29.81,13,6,23,0.00
2013-3-4,37.7,30.7,25.6,22.7,19.0,15.6,69,62,51,30.03,29.92,13,6,23,0.00
2013-3-5,47.2,34.5,20.3,28.3,21.5,14.3,88,61,35,30.07,29.82,12,2,20,0.00
2013-3-6,41.0,36.7,32.3,33.7,31.9,28.2,95,83,69,30.02,29.69,14,6,31,0.52
2013-3-7,44.5,38.1,29.9,31.7,28.4,25.4,90,69,54,30.16,30.02,12,3,17,0.07
2013-3-8,45.4,37.9,31.9,30.6,27.9,23.6,84,68,53,30.30,30.15,14,5,27,0.00
2013-3-9,57.0,39.3,23.6,34.3,27.7,21.4,92,66,34,30.37,30.25,5,2,8,0.00
2013-3-10,62.9,47.4,31.3,33.6,26.9,21.7,82,50,25,30.30,30.17,14,4,23,0.00
2013-3-11,59.3,50.9,42.3,48.7,39.6,22.2,83,67,35,30.19,29.84,15,8,29,0.00
2013-3-12,57.7,49.6,39.3,52.6,43.2,29.6,96,79,66,29.94,29.73,18,6,29,0.41
2013-3-13,46.7,37.8,28.2,33.0,26.4,20.0,88,64,44,30.04,29.88,16,5,28,0.00
2013-3-14,40.4,33.8,28.6,23.6,19.5,16.4,77,56,40,30.11,30.02,16,8,33,0.00
2013-3-15,52.9,39.8,24.9,36.0,26.9,18.4,83,61,43,30.08,29.77,9,3,22,0.00
2013-3-16,43.2,38.3,34.6,36.4,33.8,31.7,91,84,75,29.94,29.67,8,2,16,0.05
2013-3-17,39.5,36.0,33.4,32.8,27.5,22.6,92,72,55,30.25,29.92,10,3,18,0.00
2013-3-18,35.1,32.9,29.4,31.6,26.5,21.1,93,78,60,30.30,29.88,12,3,20,0.00
2013-3-19,54.8,39.9,33.0,38.6,29.7,16.4,96,71,28,29.91,29.72,14,4,28,0.21
2013-3-20,48.2,38.3,30.2,26.8,20.3,16.9,68,49,30,29.95,29.76,13,6,25,0.00
2013-3-21,35.1,29.7,24.7,25.5,16.1,10.9,81,57,43,29.88,29.76,14,5,24,0.00
2013-3-22,40.2,31.5,22.0,24.4,19.6,13.8,77,62,50,30.00,29.85,13,5,23,0.00
2013-3-23,48.2,35.6,24.2,28.1,23.2,19.6,84,62,39,30.02,29.92,12,3,21,0.00
2013-3-24,42.2,34.8,25.1,30.7,23.5,20.5,85,65,49,30.00,29.65,10,2,13,0.00
2013-3-25,36.4,33.8,31.5,34.0,31.4,27.8,96,91,71,29.70,29.52,5,1,12,0.50
2013-3-26,48.2,38.7,29.7,36.0,31.3,28.3,97,77,47,30.00,29.70,10,3,17,0.06
2013-3-27,46.7,40.0,34.7,37.1,30.9,28.0,88,70,53,30.11,29.99,13,4,23,0.01
2013-3-28,46.8,40.6,33.8,33.8,30.7,26.9,84,68,50,30.22,30.06,14,4,22,0.00
2013-3-29,53.1,43.3,32.6,36.5,30.7,26.8,84,62,41,30.24,30.13,9,3,16,0.00
2013-3-30,56.7,42.6,30.4,33.4,27.9,22.0,87,60,27,30.23,30.09,7,2,12,0.00
2013-3-31,49.4,45.1,35.9,43.3,36.9,25.6,91,75,43,30.09,29.81,12,3,20,0.10